NO-116
1 51031U 22002AZ  22132.65554561  .00010417  00000-0  55869-3 0  9992
2 51031  97.4957 200.6048 0013817 181.4267 178.6928 15.15072011 18016
IRIS-A
1 51044U 22002BN  22132.63029256  .00003924  00000-0  22512-3 0  9996
2 51044  97.4843 200.1603 0009532 178.5839 181.5421 15.13101400 17997
DELFI-PQ
1 51074U 22002CU  22132.15403658  .00009588  00000-0  49402-3 0  9997
2 51074  97.5080 200.5506 0013683 213.9156 146.1203 15.16516542 17959
SO-115
1 51080U 22002DA  22132.17471458  .00007258  00000-0  38129-3 0  9995
2 51080  97.5099 200.5436 0013216 213.4822 146.5577 15.15925724 17958
SO-114
1 51081U 22002DB  22131.97728557  .00006625  00000-0  34835-3 0  9995
2 51081  97.5087 200.3338 0013544 214.0499 145.9866 15.15922510 17927
GASPACS
1 51439U 98067TB  22129.34954256  .00453457  00000-0  20273-2 0  9990
2 51439  51.6288 160.4669 0014458  34.2958 325.8975 15.82307313 16097
